Theta_e
320 321 320 318 317 315 314 314 316 317 318 319 319 321 323 326 327 326 326 326 326 327 326 325 323 322 323 323 323 324 325 326 328 329 329 327 326 325 321 316 312 311 311 311 311 312 313 313 311 311 313 316 317 318 318 318 318 318 320 319 318 318 318 317 317 316 316 317 314 312 315 318 316 313 313 314 314 315 315 316 317 318 317 316 316 316 317 321
320 321 320 318 317 315 314 314 315 316 317 318 318 320 322 325 326 324 325 325 325 325 325 324 323 322 322 322 323 324 325 327 328 329 328 325 325 325 322 315 312 312 311 311 310 312 313 312 311 311 315 317 317 317 318 318 317 318 320 319 318 319 316 315 316 316 315 316 315 312 315 317 317 314 313 315 315 315 315 316 316 317 317 316 315 316 318 319
320 320 319 317 316 315 314 315 315 315 316 316 317 318 320 323 325 323 324 325 325 324 324 324 322 321 321 321 322 323 326 327 325 326 326 324 324 323 321 313 311 312 311 310 310 312 313 312 311 312 316 317 316 317 317 317 317 317 319 319 320 319 315 312 314 314 313 314 315 313 314 315 315 314 314 315 316 315 316 317 316 317 317 317 315 315 317 318
320 320 319 317 316 315 314 315 315 314 314 314 315 317 318 321 325 323 323 324 324 324 323 322 321 321 321 321 321 323 324 321 318 322 323 323 323 323 320 312 311 312 310 310 310 312 313 311 311 313 316 316 316 316 317 316 317 317 317 318 318 316 315 313 312 313 311 313 314 313 313 314 313 313 314 315 315 315 316 316 316 317 317 317 316 316 317 317
320 320 319 317 316 315 314 315 315 314 313 312 312 315 317 320 324 323 322 323 322 322 321 321 322 323 325 323 324 323 319 316 316 319 320 320 322 323 319 311 311 311 309 310 310 313 313 310 311 313 315 316 316 316 317 315 315 317 314 314 313 313 315 313 310 312 311 312 313 312 313 314 313 313 314 315 315 316 316 315 315 316 316 316 316 316 316 316
319 319 319 318 315 315 314 315 314 312 311 311 311 314 316 318 323 324 322 321 321 321 321 323 323 326 327 325 327 321 314 316 316 315 315 319 323 322 317 310 311 310 309 310 311 313 311 310 312 314 315 315 317 316 315 314 315 317 314 311 311 311 313 312 310 311 311 312 313 313 314 313 313 313 313 314 316 316 315 315 315 315 315 315 316 316 316 316
319 319 319 317 315 314 314 315 313 310 311 312 313 314 315 317 321 325 324 321 320 320 321 323 323 326 326 325 326 316 311 315 313 313 315 319 323 319 313 310 311 310 309 311 312 313 311 310 312 314 314 314 315 315 314 313 314 316 315 312 311 310 311 311 311 311 311 312 313 313 313 313 314 314 312 313 315 315 315 314 314 315 314 314 315 316 316 316
318 319 319 317 315 314 314 314 312 311 312 313 314 315 315 316 319 325 325 322 320 320 321 321 323 326 325 325 325 313 310 314 311 313 315 318 321 316 310 311 311 310 310 311 312 312 310 311 313 314 314 313 314 314 313 314 314 315 314 312 310 309 309 310 311 310 310 311 312 312 313 313 313 313 312 313 314 314 315 314 314 314 314 314 314 315 315 315
318 318 317 317 315 315 313 313 312 313 313 313 314 315 315 315 318 323 326 325 321 320 321 322 325 326 324 324 322 311 310 313 312 312 312 317 318 313 311 311 311 310 310 312 313 312 310 312 313 313 314 313 314 314 313 314 315 315 313 311 311 309 308 310 309 309 310 310 311 312 312 311 311 311 313 314 314 314 314 314 314 314 314 314 314 315 314 315
318 317 317 316 315 315 314 313 313 313 313 313 314 314 315 314 317 321 325 326 324 323 323 325 327 325 322 321 314 310 312 313 312 313 311 313 314 312 312 311 311 310 310 313 313 311 311 312 312 313 313 312 313 312 312 314 314 312 311 311 310 309 308 309 309 308 309 309 310 312 312 311 310 311 314 314 313 314 314 314 314 314 314 314 314 314 314 314
317 317 317 316 315 315 313 313 314 313 313 314 314 315 314 312 315 319 323 326 326 326 326 327 327 323 321 318 311 310 313 313 313 313 312 312 312 312 311 311 311 310 311 313 313 311 310 311 312 312 312 312 312 311 311 312 312 312 311 312 310 310 310 310 310 309 310 310 310 312 312 311 310 311 314 314 313 313 314 314 314 314 314 314 314 314 314 314
317 316 316 315 315 315 312 313 314 313 314 314 313 314 312 311 313 316 320 323 325 326 326 326 324 321 319 314 310 311 313 314 314 313 313 311 311 312 310 310 311 311 313 313 313 311 310 312 312 312 312 312 312 311 311 311 311 312 313 314 311 312 312 310 311 310 311 312 310 311 312 312 311 312 314 313 313 313 313 313 313 313 314 313 314 314 314 314
317 316 316 315 316 314 311 312 313 313 314 313 313 312 309 310 312 313 316 319 321 323 322 322 321 319 315 310 310 312 312 314 315 313 312 311 310 312 310 310 313 313 313 312 312 311 311 312 312 312 312 312 312 311 312 310 311 312 312 314 313 313 314 311 311 311 311 312 310 311 313 314 314 313 313 313 313 313 313 313 313 313 314 313 314 314 314 314
317 316 316 316 315 314 311 312 313 313 313 313 313 310 307 308 310 311 313 315 317 318 318 319 317 314 311 309 310 312 311 313 315 313 312 311 311 312 311 312 314 313 312 311 311 311 311 312 311 312 312 311 311 311 311 310 311 312 312 313 314 314 314 311 310 311 312 312 310 310 312 315 314 312 312 312 312 313 313 313 313 313 313 314 314 313 314 314
317 316 316 315 314 313 312 311 313 313 313 312 311 309 308 307 307 309 311 312 313 314 315 314 311 309 309 309 309 310 310 312 314 314 313 312 311 312 312 313 314 312 311 311 311 311 311 312 311 311 311 311 311 311 311 310 310 311 312 313 314 314 313 312 310 310 312 312 310 311 313 315 314 311 310 311 312 312 313 313 313 314 313 314 314 313 313 313
317 316 315 314 314 313 312 311 312 312 312 312 310 309 307 305 306 307 308 309 310 311 311 309 307 308 308 309 309 310 310 311 312 314 314 313 312 312 313 313 313 312 311 311 311 311 311 311 311 311 310 310 312 313 312 312 312 311 312 314 314 313 313 312 311 310 311 312 311 311 313 314 315 312 309 310 312 311 312 313 313 313 313 313 313 313 313 313
316 316 314 314 314 313 312 312 312 311 312 312 310 308 306 305 306 306 306 307 307 308 307 307 307 308 308 308 310 310 310 310 311 313 314 314 312 312 313 313 312 311 312 312 311 311 312 311 310 310 311 310 312 314 313 313 313 312 313 314 313 312 312 311 312 311 310 312 312 311 312 314 314 313 310 310 311 311 312 313 313 313 313 313 313 313 313 313
315 315 313 313 313 313 311 311 312 312 312 310 308 307 306 305 306 306 306 306 306 306 306 307 306 308 308 308 310 311 310 311 311 311 313 314 313 312 313 313 312 312 312 312 312 312 312 311 311 312 312 310 311 313 313 313 313 312 312 313 312 311 311 311 312 310 310 312 313 312 312 314 314 313 312 311 310 310 311 313 312 312 313 313 313 313 313 314
315 314 312 313 313 312 311 311 312 312 310 308 308 307 306 306 306 306 306 306 307 307 307 308 307 308 309 308 310 311 310 310 310 310 311 313 313 311 312 312 312 312 312 313 312 312 312 312 312 313 313 311 311 313 313 314 314 313 314 314 314 313 311 310 310 309 309 312 313 313 313 314 314 314 314 312 310 310 310 311 312 312 313 313 313 313 314 314
314 313 312 312 313 313 312 311 312 311 309 309 309 308 308 309 309 309 309 307 308 308 308 308 307 309 309 308 309 311 310 310 310 310 310 312 312 311 312 312 312 313 312 314 313 311 312 313 313 314 313 312 312 312 312 313 313 313 314 314 314 314 311 310 310 308 308 312 313 314 314 314 314 314 315 314 311 310 311 311 312 312 313 314 314 314 314 314
314 313 312 311 312 312 311 311 311 310 309 309 308 307 309 310 310 311 310 309 307 308 308 307 308 310 309 308 310 311 311 311 310 310 310 312 312 312 312 312 313 313 311 312 312 311 311 313 314 314 312 312 311 310 310 311 311 312 312 312 313 313 312 310 310 309 307 310 313 312 312 313 313 314 314 314 312 312 312 313 313 313 313 313 314 315 314 314
314 313 312 311 311 311 310 311 311 309 309 308 306 307 308 309 309 309 309 309 308 309 308 307 308 310 309 308 311 311 311 311 311 311 311 311 312 311 311 312 312 312 310 310 312 312 313 314 313 311 309 309 309 308 310 311 311 312 312 312 312 312 312 310 310 309 307 310 313 311 311 313 314 314 315 315 314 313 313 313 314 314 314 314 314 315 315 315
314 313 311 311 310 310 310 311 310 309 308 308 307 307 307 309 310 308 308 310 309 308 308 307 308 310 309 309 312 311 311 312 311 312 311 311 312 311 312 312 312 312 311 311 313 313 314 313 311 308 308 309 308 308 310 312 311 312 313 312 313 314 313 312 311 309 307 308 311 312 313 315 315 315 315 315 313 313 313 313 314 313 313 314 314 315 315 316
314 313 311 310 309 311 311 310 310 309 308 307 307 307 308 310 309 308 309 309 308 308 308 307 308 310 310 310 312 312 311 312 311 312 311 311 312 311 312 312 311 311 311 311 312 314 313 310 305 306 309 310 309 308 310 312 312 313 314 314 314 314 314 313 311 309 308 308 310 313 313 314 316 316 315 315 311 310 311 311 313 314 314 314 315 315 315 316
314 313 311 310 310 311 311 310 310 309 308 307 307 307 309 310 308 308 309 309 309 309 308 308 308 309 310 310 311 312 311 311 312 312 311 312 312 311 311 311 311 312 311 311 311 313 312 306 303 307 309 311 311 310 312 313 312 313 314 314 315 313 313 313 312 311 312 312 311 312 311 312 316 315 315 314 310 311 311 310 312 314 314 315 315 316 315 315
314 313 311 310 310 311 311 311 310 309 308 308 307 308 310 309 308 309 310 310 310 308 308 309 308 309 310 311 312 311 311 311 311 312 311 311 311 311 311 310 310 311 310 310 311 312 309 303 305 309 310 312 313 311 314 315 312 312 313 313 314 314 315 314 314 314 313 312 310 310 311 312 314 316 315 312 311 313 312 312 313 313 313 314 314 315 315 315
314 313 312 311 311 311 311 311 309 308 309 308 307 309 310 308 308 309 310 311 311 309 308 308 308 309 310 311 312 311 311 312 311 311 311 311 311 311 311 309 308 309 308 309 312 310 307 305 308 311 311 312 312 311 314 314 312 314 314 312 313 314 317 317 316 315 313 312 311 311 313 312 312 316 315 311 312 314 313 313 314 313 312 313 313 314 314 314
313 313 313 311 311 310 310 310 308 308 309 307 308 310 309 308 309 309 311 311 311 309 308 308 309 309 309 311 312 310 311 312 312 312 311 311 310 310 311 310 310 310 307 309 313 309 308 309 310 311 311 311 313 315 315 313 313 315 311 310 313 314 316 317 316 313 312 311 312 313 314 312 312 315 314 310 312 314 315 314 315 314 312 312 313 313 313 313
313 313 313 312 311 310 309 309 308 308 308 307 309 310 308 308 309 309 311 311 310 308 308 308 309 309 310 311 310 310 311 311 311 312 310 310 310 309 310 310 310 310 307 310 314 311 309 309 308 310 312 312 313 312 312 315 314 311 308 309 312 312 312 314 314 312 311 311 313 314 312 311 312 316 314 311 312 315 316 315 314 313 311 311 312 312 313 313
314 313 313 312 312 310 309 309 308 307 307 308 309 309 308 308 309 310 310 311 311 308 307 307 309 310 311 310 310 309 310 310 310 310 310 310 310 308 309 309 309 311 312 313 313 311 308 307 307 309 311 310 309 306 307 312 312 309 310 311 312 311 311 312 311 310 311 313 312 309 308 310 311 315 316 314 313 314 315 314 313 312 311 312 313 313 314 314
314 314 313 312 311 310 309 309 308 307 308 309 309 308 308 309 309 311 311 311 311 308 306 307 309 310 311 310 310 309 310 310 310 310 310 309 309 308 309 310 310 312 314 313 312 310 309 308 309 308 307 306 308 308 306 306 307 309 313 313 312 312 312 311 310 310 313 314 309 306 306 309 310 313 315 313 312 311 311 312 313 313 313 313 313 314 315 314
314 314 313 312 311 309 309 309 308 307 308 309 309 307 308 309 310 311 310 309 310 309 308 308 308 310 311 311 311 310 310 310 310 311 310 310 309 309 310 311 311 312 311 311 312 312 311 311 310 308 307 308 312 311 307 306 308 311 312 313 313 313 313 313 313 312 313 312 307 305 307 309 311 313 313 312 312 311 309 310 312 313 312 312 313 314 314 314
315 314 314 313 312 310 309 309 308 307 308 309 308 307 310 311 312 312 309 308 310 309 309 309 308 310 311 310 311 310 311 311 310 310 310 311 310 310 312 312 313 315 314 313 313 312 312 313 311 311 309 308 312 312 309 309 309 311 313 313 313 313 313 314 313 311 312 310 306 305 307 310 312 313 313 313 312 311 309 309 310 310 311 312 312 313 315 315
315 315 314 314 313 311 310 309 308 307 309 309 308 308 311 312 313 312 309 308 309 308 308 309 309 310 310 311 311 311 311 310 309 310 310 310 311 310 311 310 311 316 315 313 313 313 313 313 312 313 311 309 312 312 312 313 311 312 315 314 313 313 314 314 313 313 313 311 307 305 308 312 313 312 313 312 309 309 309 309 309 310 311 312 313 313 315 315
315 315 315 314 314 312 311 310 308 308 309 309 308 309 312 313 313 312 310 308 307 307 308 309 310 310 310 310 310 310 311 311 309 310 310 311 311 311 311 309 310 314 314 312 312 312 313 312 311 310 307 308 312 311 311 314 312 311 311 312 313 314 314 311 309 310 310 310 309 308 310 313 313 312 312 311 309 308 308 308 309 310 311 312 312 313 314 315
315 315 315 314 314 313 311 310 308 308 309 309 309 310 312 312 313 312 310 307 307 308 308 310 311 311 310 310 310 310 311 311 310 310 311 311 312 311 312 311 310 311 312 313 313 312 311 311 311 310 307 307 310 309 308 311 312 310 309 310 311 313 315 311 306 305 306 310 312 310 311 313 311 312 314 313 312 310 309 307 307 309 311 311 312 314 315 315
315 315 315 314 314 313 311 310 308 309 309 309 309 311 312 311 310 310 309 308 308 309 310 310 311 311 311 310 311 310 311 312 310 311 311 311 311 311 311 311 310 310 311 313 314 314 313 312 311 312 312 308 306 306 307 307 309 311 311 311 310 310 313 311 309 309 308 310 312 309 311 312 310 312 315 314 312 312 311 309 308 309 310 311 312 314 314 315
315 314 314 313 313 312 311 310 308 309 310 309 310 312 314 311 307 308 308 308 308 309 311 311 311 312 311 310 311 310 311 312 310 311 312 311 311 312 311 310 310 310 310 310 312 315 316 313 311 310 312 310 307 309 309 307 307 309 311 311 311 312 312 310 310 312 311 311 312 309 308 309 310 312 315 314 313 314 313 311 311 311 310 311 313 314 314 315
314 313 313 313 312 311 311 310 309 309 310 309 310 311 314 311 306 306 308 308 309 310 311 312 311 311 311 311 311 310 310 311 311 311 312 311 311 311 310 311 312 310 308 309 312 314 315 315 313 310 311 311 311 312 312 310 308 307 307 308 311 313 312 311 311 311 312 311 311 310 308 309 311 312 313 313 313 315 314 313 314 311 311 312 313 314 315 315
314 313 312 313 312 311 310 309 309 311 310 310 310 311 312 310 306 305 307 309 309 309 310 313 312 310 311 312 311 310 311 312 311 311 312 311 311 310 309 310 312 310 308 309 312 313 313 313 313 311 310 310 312 312 313 313 311 308 308 309 310 310 309 310 309 308 311 311 310 311 309 310 313 312 312 312 313 314 313 314 314 310 310 313 312 313 315 315
313 312 312 313 313 311 311 310 310 311 311 310 312 312 310 308 306 306 307 308 308 307 309 312 312 311 312 311 310 311 311 311 311 311 311 311 310 311 310 310 311 310 309 310 313 314 312 312 313 312 311 311 313 311 309 312 313 311 310 310 312 311 310 312 311 308 308 309 309 310 310 312 314 312 312 312 312 311 309 309 311 309 309 312 312 313 315 314
312 312 311 313 313 311 310 311 311 311 311 310 310 310 308 307 308 308 306 307 309 309 309 311 312 312 312 311 311 312 311 311 311 312 312 311 311 312 311 309 309 309 309 311 312 313 312 313 314 312 311 312 311 307 303 306 312 312 310 311 312 312 312 313 313 311 308 305 306 307 308 312 314 310 308 309 308 306 304 304 306 307 309 311 312 313 313 313
310 310 310 312 312 311 310 311 311 311 310 309 308 308 307 308 309 308 308 309 310 310 310 312 311 311 312 312 311 311 311 311 311 312 312 312 311 310 309 308 308 309 310 311 312 310 311 315 315 311 311 311 310 308 305 306 311 311 311 312 312 312 314 314 312 312 309 307 308 308 309 313 315 309 305 304 303 303 303 304 305 307 309 310 311 312 313 313
309 309 310 310 310 310 311 311 310 310 310 309 308 308 307 308 309 308 309 310 310 310 312 313 310 309 312 313 311 311 312 311 311 311 312 313 310 308 307 307 308 310 310 310 312 310 311 315 315 312 312 312 311 311 311 310 310 311 312 313 311 313 313 311 310 311 310 310 311 310 311 312 313 310 307 307 306 306 306 306 307 307 309 310 311 312 312 313
307 308 309 309 309 310 311 311 310 310 310 309 309 310 309 308 307 307 309 310 310 311 311 311 309 310 313 314 312 312 313 313 314 312 312 313 310 306 306 307 309 310 310 311 311 311 313 316 314 313 314 314 314 314 314 313 312 311 313 312 311 312 311 310 311 310 311 311 310 310 312 312 310 310 311 311 311 311 308 307 308 308 309 310 311 312 313 313
305 307 309 309 309 310 309 310 310 310 309 309 309 310 310 310 307 306 308 309 309 310 310 309 309 311 313 312 311 312 312 313 314 313 311 312 311 307 305 306 308 309 309 310 310 311 315 317 313 312 314 314 314 315 315 316 314 314 314 313 312 311 311 313 313 311 312 312 310 311 313 313 311 311 312 313 313 313 311 308 309 309 309 310 311 312 312 313
304 306 307 308 309 310 309 309 311 310 309 309 309 309 310 311 309 307 308 309 308 309 311 310 311 311 311 311 312 312 312 312 312 313 312 311 311 308 305 305 307 308 308 309 310 313 316 314 313 314 314 313 314 315 316 316 315 315 315 314 313 311 311 313 313 313 314 312 311 312 313 313 312 311 313 316 316 315 313 309 309 310 309 310 311 311 312 312
303 304 304 306 307 308 309 309 310 311 309 309 310 310 310 310 310 309 309 309 309 310 311 310 311 312 311 312 312 312 312 312 311 312 313 312 311 309 307 306 306 307 308 309 309 313 315 312 313 315 313 313 314 315 316 316 314 315 316 315 313 311 311 312 313 314 314 313 312 314 314 313 313 311 312 315 315 314 311 309 309 310 309 310 311 311 312 312
302 302 302 305 305 306 308 309 309 310 310 309 310 310 309 310 310 309 310 310 310 312 312 311 312 312 312 312 312 313 313 312 311 312 311 311 311 310 309 309 307 306 308 310 309 310 312 313 314 313 313 314 314 314 315 315 313 314 316 316 313 311 311 312 312 313 314 314 314 314 315 315 313 312 312 312 311 310 309 308 309 310 310 310 311 311 311 312
302 302 303 304 304 305 307 309 309 310 310 309 309 310 309 310 310 310 310 310 312 313 312 312 312 312 313 313 312 313 313 312 313 313 311 311 312 311 310 310 309 307 308 310 310 308 310 314 314 312 311 313 312 312 312 312 313 314 314 313 312 311 311 311 312 313 314 314 314 314 315 314 313 312 311 309 309 307 307 309 310 310 311 310 310 310 311 312
301 302 303 304 304 305 307 309 309 310 310 309 309 309 309 309 309 310 310 308 310 314 313 313 314 311 311 313 313 312 312 312 313 312 310 311 311 310 311 310 310 310 309 310 311 310 310 312 313 312 312 311 311 311 311 311 312 313 312 311 311 311 311 311 312 313 313 313 314 313 313 313 313 313 311 308 308 308 308 309 310 310 311 310 310 311 311 312
301 301 303 304 305 304 306 308 309 309 309 309 309 309 309 309 309 310 310 308 308 311 312 313 313 310 310 312 313 311 310 309 311 309 308 309 310 309 309 309 309 310 310 310 311 311 310 311 312 312 312 312 311 310 311 312 311 311 311 311 312 311 311 312 312 312 313 313 313 313 313 313 313 312 311 309 309 309 309 309 310 311 311 311 311 311 312 312
Wind_Speed
34 31 31 31 32 36 40 41 43 44 42 38 36 30 29 34 37 36 35 32 31 30 30 32 29 25 23 21 24 26 25 22 19 18 21 23 19 15 11 8 9 8 8 10 8 7 7 7 7 7 7 8 6 9 9 7 8 5 2 2 3 2 2 4 7 5 2 6 10 13 17 14 10 10 8 7 8 5 9 12 11 12 9 7 8 9 19 24
35 32 31 31 32 35 39 41 42 43 42 40 36 32 31 35 37 36 34 31 29 28 26 26 26 23 20 19 21 23 23 21 18 19 22 22 19 18 13 10 11 10 10 11 10 9 8 8 7 8 9 7 5 8 8 6 7 3 1 3 3 2 2 2 6 6 1 6 13 14 16 13 10 12 11 8 7 7 7 10 10 11 11 10 10 10 17 24
35 32 31 32 31 34 39 40 40 41 41 40 38 35 33 36 38 37 34 31 29 27 25 26 25 23 20 19 19 20 22 18 17 20 22 22 22 21 15 11 11 11 11 11 11 10 10 8 7 8 10 7 5 8 6 4 5 1 2 4 3 3 2 2 6 7 2 7 14 13 15 10 9 14 12 8 6 7 9 10 10 11 14 13 12 12 16 23
35 33 31 32 31 33 38 39 38 39 39 39 39 38 36 37 40 38 34 31 29 27 26 27 26 24 22 20 20 21 19 10 14 21 20 22 28 25 15 11 11 11 12 11 11 11 10 9 8 9 11 6 4 8 5 5 5 2 3 2 3 4 2 3 8 8 5 8 12 14 14 9 10 15 12 8 6 7 11 13 13 13 16 17 14 12 15 22
36 34 32 32 31 32 36 36 36 38 38 38 40 40 39 39 41 40 35 32 30 29 28 29 26 24 21 20 21 19 13 2 10 20 18 22 33 28 16 12 12 12 12 11 12 12 10 9 9 10 10 5 5 6 4 5 4 2 1 3 2 4 2 4 9 9 6 7 12 15 12 11 12 13 12 12 8 6 8 14 17 15 16 17 16 14 14 21
36 34 32 32 33 33 35 34 33 36 36 37 38 40 40 40 43 41 37 34 33 32 31 30 27 23 20 20 20 17 13 3 4 14 17 24 36 28 17 13 14 13 12 12 12 12 10 10 10 11 8 4 6 5 4 7 6 2 1 2 2 2 2 6 8 9 9 8 12 13 12 13 13 9 12 16 11 5 5 9 14 16 16 16 17 16 14 18
36 34 32 32 33 33 36 34 31 34 35 35 36 38 40 41 44 43 39 37 36 35 33 31 27 23 21 22 19 16 17 11 4 8 12 25 33 24 16 16 15 14 14 13 14 13 11 13 12 13 8 2 6 4 4 8 5 3 2 3 3 3 2 6 7 9 11 9 11 14 12 13 12 8 11 17 17 13 7 4 7 12 16 16 17 18 15 15
35 35 32 32 32 32 34 33 31 34 34 34 34 34 38 41 43 43 40 39 39 37 35 33 27 24 23 23 20 16 20 19 9 7 9 23 28 20 17 18 16 15 15 14 15 14 13 14 14 14 8 2 6 7 8 8 3 3 2 5 4 3 3 6 7 9 11 9 12 14 10 9 11 6 7 15 18 19 16 8 5 7 14 17 17 18 17 16
35 34 33 32 32 32 33 33 33 33 32 32 32 31 34 39 43 42 41 40 40 38 36 32 27 26 24 23 21 14 18 21 14 6 7 17 22 18 18 18 17 16 16 16 15 14 13 15 17 15 6 5 8 8 11 9 3 3 4 6 5 4 6 7 7 9 9 9 12 12 5 5 10 5 7 14 15 16 19 16 10 6 10 16 17 17 18 17
35 34 33 32 32 31 32 33 33 32 30 29 30 30 31 37 42 41 40 40 40 38 36 31 28 29 25 23 19 10 16 20 17 13 6 9 13 16 19 18 17 16 16 17 15 14 15 14 18 16 6 6 8 6 10 7 2 9 10 8 7 6 6 6 7 8 7 10 11 8 5 3 6 4 6 11 14 16 18 19 18 12 9 13 17 18 18 18
35 33 33 33 32 31 32 33 32 31 31 29 30 29 30 35 40 41 40 40 39 37 34 31 29 29 26 25 20 11 15 17 15 16 10 6 7 12 18 17 16 16 16 17 15 15 16 13 14 14 5 5 9 5 6 4 5 15 15 10 8 6 7 5 7 9 6 7 8 6 5 3 4 4 6 6 10 15 19 20 21 20 16 13 16 19 20 19
34 34 34 35 32 30 32 33 31 31 31 30 30 29 29 33 38 40 40 38 38 36 33 31 30 28 26 26 25 18 14 12 10 12 13 11 9 9 15 16 14 15 14 15 14 14 16 12 12 14 6 5 8 4 5 8 12 15 10 6 5 4 5 4 3 6 3 4 9 8 4 3 6 8 8 9 8 9 16 20 20 21 21 18 17 18 21 21
35 34 35 35 32 30 32 33 32 32 31 30 29 29 30 32 35 37 37 37 36 34 33 31 29 28 25 21 23 24 15 9 9 9 12 14 10 8 13 16 14 14 14 13 12 13 15 12 11 13 8 6 5 5 9 11 12 10 3 1 4 4 3 3 2 3 2 4 10 8 2 5 10 10 9 11 11 9 12 16 19 20 20 22 21 19 20 22
36 34 35 35 31 30 32 33 32 32 31 29 28 29 30 31 32 34 35 35 34 33 33 31 29 28 25 16 16 24 19 10 9 9 10 12 12 10 12 16 13 12 13 13 12 12 15 13 11 11 7 6 8 9 9 6 4 6 3 2 2 4 4 4 2 1 3 5 9 6 4 3 5 7 11 13 12 10 10 12 15 18 19 21 22 22 22 21
37 35 34 33 31 31 32 34 34 33 30 27 27 28 29 30 30 31 32 32 33 33 32 30 29 26 19 12 11 19 23 16 10 9 10 11 12 11 13 16 13 11 11 11 11 12 13 12 11 9 7 9 13 10 5 2 1 2 4 4 2 3 3 3 1 0 1 4 7 6 4 4 2 4 10 14 13 12 11 11 14 15 17 20 22 23 23 22
37 35 33 32 32 32 31 34 35 33 30 26 27 28 28 29 29 29 29 30 30 31 30 29 31 25 11 10 12 15 23 23 14 10 10 11 12 11 13 15 13 11 10 10 10 11 13 11 10 9 9 10 9 7 4 3 3 1 3 4 4 4 3 2 2 1 1 2 6 5 3 3 1 3 6 9 10 11 11 13 16 17 17 19 22 24 24 24
37 35 32 32 32 31 31 33 32 32 30 28 28 29 30 30 30 30 29 29 28 28 28 28 29 21 7 10 14 14 22 27 21 13 9 11 12 11 14 15 13 12 10 10 10 11 12 11 10 7 6 4 3 5 7 6 6 3 1 1 1 3 3 3 3 1 0 2 5 5 4 6 1 2 6 8 6 5 8 10 14 18 19 19 21 23 25 25
38 36 33 33 31 31 31 31 32 31 30 30 30 31 32 31 30 29 29 28 27 25 22 23 25 14 8 13 14 14 21 24 24 18 11 11 13 13 14 14 13 13 11 9 9 10 9 7 5 4 3 3 3 8 8 5 6 8 6 3 2 3 4 3 2 2 1 3 5 5 7 12 7 4 7 8 6 6 8 10 11 16 19 20 20 23 25 27
39 36 34 33 31 32 31 32 34 32 32 33 32 34 32 30 28 26 30 31 27 17 9 21 27 6 2 15 16 15 18 19 22 22 15 12 14 15 13 12 14 15 13 8 6 7 7 4 3 4 6 6 6 9 6 3 7 10 8 5 5 5 3 1 1 2 1 4 7 9 10 11 10 10 10 10 11 10 11 13 15 15 17 19 21 23 24 26
39 37 36 34 33 33 32 35 34 33 37 35 37 39 30 27 20 15 28 30 22 10 2 23 31 3 4 18 20 17 17 17 21 24 19 14 16 16 13 13 13 12 8 4 4 5 5 5 6 7 7 7 7 4 1 3 4 6 4 1 2 4 3 2 2 3 2 4 7 7 9 11 12 11 10 10 10 11 12 14 18 19 19 19 21 24 26 26
39 38 36 35 36 33 35 37 33 37 39 38 47 39 29 32 18 16 30 20 13 8 4 26 30 3 4 20 23 20 18 16 18 24 21 16 18 15 12 12 10 6 2 3 5 4 4 7 7 4 3 5 5 3 4 4 3 3 4 3 2 3 1 2 1 2 2 3 3 1 6 13 14 12 11 10 10 13 15 15 17 21 22 21 20 23 25 25
40 39 37 37 37 35 37 36 34 39 38 42 47 30 29 37 23 31 37 13 7 9 11 32 25 4 8 19 22 22 18 12 12 22 23 21 21 14 10 10 6 4 2 4 5 3 4 6 3 3 5 6 5 3 4 4 3 3 3 4 3 2 2 2 1 2 1 3 1 2 5 11 12 12 13 13 13 15 18 20 21 20 21 23 23 22 23 23
41 39 38 38 38 37 36 35 37 39 39 45 39 21 29 30 20 36 34 13 10 8 15 35 24 7 12 17 20 19 15 10 11 22 24 24 21 15 13 10 4 5 3 4 6 5 5 3 2 6 8 8 5 2 5 4 3 2 3 4 4 3 2 2 3 2 1 1 1 1 4 9 9 9 11 14 14 15 20 24 25 24 24 24 24 24 23 24
41 40 39 38 39 38 35 36 37 36 41 43 28 21 29 24 25 37 24 10 7 5 11 30 25 14 14 16 20 15 12 12 15 23 27 26 22 14 12 9 5 5 5 6 6 5 3 1 2 6 7 9 7 4 6 6 4 2 3 5 3 5 4 1 4 4 1 1 1 1 5 7 6 8 10 7 7 12 17 19 23 26 28 26 25 25 25 26
42 41 39 39 39 39 37 37 35 36 43 38 24 26 29 26 33 35 18 8 5 4 8 19 21 15 13 14 18 14 11 12 16 26 29 27 24 14 8 9 6 5 6 5 4 4 1 2 5 5 3 7 8 6 8 8 6 3 5 5 2 6 6 4 6 6 2 4 1 1 5 5 1 5 8 2 1 7 9 11 17 23 25 26 27 28 27 27
43 41 40 41 40 42 38 33 34 39 42 33 26 30 29 32 37 29 14 5 4 6 6 12 14 15 15 12 16 17 9 8 15 26 30 25 23 16 9 6 2 3 6 6 2 1 1 2 4 4 4 5 4 5 6 6 6 4 3 4 3 5 7 7 8 5 2 2 1 1 5 4 1 3 3 1 3 7 6 8 14 19 22 24 26 28 27 28
43 42 41 42 42 45 40 33 38 42 39 31 29 32 32 35 35 23 10 2 5 8 7 9 9 14 17 13 18 16 5 9 14 20 27 24 20 15 9 6 2 2 5 4 2 1 3 4 2 3 5 5 5 5 4 6 7 2 1 3 7 8 8 9 8 4 1 1 1 1 2 4 5 3 2 2 4 7 6 9 12 16 20 21 22 24 24 25
43 43 43 42 42 45 42 39 43 45 39 32 32 34 34 35 30 18 7 1 5 7 7 8 6 12 16 16 21 11 5 16 11 12 24 23 18 12 6 8 7 5 4 4 5 1 2 5 4 6 5 5 5 1 4 9 5 0 1 2 5 6 5 6 6 3 1 1 4 3 1 4 6 2 2 1 4 8 8 10 10 11 15 18 18 18 19 21
43 43 43 41 40 41 39 38 44 44 36 32 33 33 34 32 23 10 2 2 5 4 5 10 9 12 15 16 16 7 8 12 4 11 23 19 15 8 4 8 8 8 3 0 3 0 1 3 4 5 5 4 2 3 0 5 3 4 5 5 6 5 5 3 3 3 2 3 5 3 1 4 5 2 3 1 3 7 8 7 5 4 9 13 13 13 15 16
42 43 43 42 42 41 36 33 39 40 35 34 34 34 34 26 14 7 4 3 5 4 5 10 11 12 15 13 8 5 7 4 4 16 17 11 12 8 7 10 9 8 3 4 4 1 1 2 2 1 1 3 5 5 4 2 5 10 8 7 8 5 3 2 1 1 3 5 3 2 2 3 4 2 4 4 2 3 5 4 1 2 6 8 8 9 11 12
42 43 43 42 41 41 37 33 36 39 37 34 34 36 30 14 4 7 6 3 5 4 4 6 8 12 18 15 7 5 4 2 7 15 11 7 8 8 9 8 6 4 2 2 3 1 2 3 2 1 3 5 4 5 7 4 5 6 4 6 7 3 2 2 1 2 5 5 1 2 2 3 5 3 2 2 3 2 4 3 1 4 5 5 4 5 7 8
42 42 41 38 35 36 37 35 38 40 35 33 36 34 20 6 3 6 5 6 6 5 6 7 7 10 17 14 7 5 4 3 6 9 9 7 6 7 6 5 6 4 3 5 3 1 2 2 1 1 3 4 3 4 5 2 2 2 4 8 6 4 4 4 3 3 5 2 2 1 1 3 7 6 4 7 7 4 6 7 4 3 3 4 3 3 5 7
42 40 37 33 31 32 34 33 39 41 36 36 35 22 8 5 8 7 5 5 3 3 6 6 5 9 15 12 8 6 3 3 5 4 4 6 6 6 1 1 5 3 2 5 3 3 2 0 1 2 2 5 5 4 4 4 5 5 7 8 7 5 5 5 4 1 3 0 2 1 1 3 6 5 7 11 6 2 5 10 10 8 7 6 4 3 5 7
44 38 35 32 28 28 30 32 39 42 40 39 29 11 5 8 9 8 8 5 1 3 6 8 9 11 12 8 7 8 3 1 5 4 3 5 7 6 2 2 3 1 3 4 3 5 5 3 3 2 2 4 5 2 1 4 5 3 1 2 5 5 4 5 3 2 2 2 2 1 2 4 3 1 3 7 6 6 10 12 11 11 9 7 5 4 6 8
47 39 36 32 28 28 29 33 40 43 43 36 17 6 9 10 8 9 9 5 2 3 5 9 13 12 8 2 2 6 2 1 5 4 4 7 8 8 7 7 5 2 5 5 2 3 4 2 1 2 1 2 3 2 2 3 4 1 1 0 3 3 2 2 0 0 1 1 2 3 3 4 2 5 6 5 5 9 13 13 14 15 14 11 9 6 7 10
50 44 38 33 31 29 29 35 41 45 44 28 8 7 11 7 5 7 7 6 5 7 10 10 8 9 9 3 2 7 2 1 7 5 4 5 5 8 9 7 7 6 6 6 2 1 3 1 2 2 1 1 1 1 1 0 2 2 2 3 2 1 3 3 1 1 1 3 3 3 4 4 2 7 6 1 2 5 6 8 12 16 16 13 11 8 10 11
53 48 41 35 33 30 32 37 41 45 40 20 7 9 8 3 2 4 6 8 10 14 14 10 5 6 9 6 6 10 4 3 6 5 5 5 3 8 8 5 9 11 8 4 2 3 4 2 2 1 1 1 2 0 2 3 2 2 4 4 3 1 1 1 1 1 1 4 2 2 5 4 1 3 2 0 5 6 4 3 7 11 13 13 12 10 12 13
53 47 40 36 34 33 36 38 42 44 29 9 10 11 4 2 3 5 10 12 11 14 11 7 4 3 8 9 7 9 8 6 7 5 5 5 4 8 10 5 8 13 12 4 1 2 3 2 1 1 0 1 2 1 2 3 4 1 2 2 2 2 2 2 2 2 3 4 2 2 3 4 4 4 2 1 6 6 4 3 4 7 11 15 16 13 13 14
50 37 29 33 35 35 38 38 41 38 17 4 12 11 2 3 2 7 19 17 8 9 8 5 3 1 6 9 7 9 9 7 9 7 5 5 4 6 12 9 5 10 14 7 2 2 2 1 1 1 1 0 1 2 4 3 2 1 1 1 0 1 2 2 2 1 3 3 2 1 1 3 6 5 3 6 7 4 3 3 4 8 12 18 19 16 15 14
45 24 17 34 40 36 37 36 33 24 9 6 9 4 2 4 1 9 25 22 6 4 5 4 4 5 4 5 5 7 6 6 9 7 4 6 4 2 8 10 4 6 10 6 2 2 2 1 2 2 0 1 2 2 3 4 4 3 4 4 3 1 0 1 1 2 1 3 2 3 3 3 2 3 7 10 6 1 2 2 4 9 14 17 17 17 16 14
37 13 14 39 42 38 39 30 19 12 7 7 3 2 2 4 5 9 18 16 6 1 3 4 5 6 5 6 6 6 5 4 7 6 2 7 8 4 8 14 9 8 7 4 2 3 1 1 3 3 2 3 2 1 2 2 1 1 3 5 5 4 3 3 4 1 0 1 1 2 4 3 1 2 5 6 2 1 2 3 3 7 13 15 15 17 17 15
26 5 19 46 46 44 41 19 8 8 5 5 2 3 4 5 8 10 10 9 5 2 4 4 3 4 5 6 5 7 7 5 6 7 4 7 10 6 8 16 18 17 11 5 3 3 2 3 3 3 2 2 2 1 1 1 2 1 2 1 3 3 3 5 6 3 2 1 1 1 3 3 1 1 3 4 3 3 4 5 4 5 9 12 13 17 19 19
17 9 27 49 48 47 34 10 5 6 3 2 3 3 4 3 5 9 8 7 4 2 3 3 2 3 3 3 5 8 9 6 5 7 5 5 6 3 6 16 21 18 9 3 2 3 3 3 3 2 1 1 2 0 1 0 1 2 2 2 3 3 2 2 2 2 4 4 3 2 4 4 1 2 3 5 6 8 8 8 7 6 7 12 15 18 20 20
18 17 27 43 47 42 23 7 10 10 5 5 4 2 3 1 3 7 8 6 4 3 4 3 2 3 2 3 6 9 10 6 4 6 3 2 4 3 9 20 21 14 9 7 8 9 6 3 4 4 2 1 1 1 1 1 2 3 2 3 4 3 4 3 1 1 3 5 5 4 6 6 0 1 3 4 4 6 7 8 8 7 8 14 19 20 20 19
16 13 19 35 43 32 11 4 10 9 7 8 5 4 3 1 2 6 6 5 2 3 4 3 4 5 4 4 4 5 9 6 2 5 3 1 3 2 9 22 22 14 13 15 14 13 8 3 5 6 5 5 4 5 6 4 3 3 1 2 6 7 7 5 2 3 4 4 5 6 8 5 1 1 2 2 1 3 6 8 9 8 12 19 23 22 21 21
8 4 8 20 29 24 8 2 7 8 9 10 6 5 4 2 3 4 5 5 2 3 4 3 5 6 5 6 6 5 9 4 2 4 6 5 3 1 5 18 20 13 11 17 21 14 3 1 6 9 9 9 10 10 10 7 5 6 8 9 12 12 10 5 2 4 6 3 4 8 11 10 5 2 2 3 3 4 4 7 11 12 17 25 27 23 21 20
3 2 4 6 12 15 6 2 7 7 9 11 7 6 7 5 4 4 3 3 4 6 4 3 5 8 8 11 8 5 9 5 1 3 6 5 2 2 3 10 12 8 5 14 23 15 2 3 7 9 11 12 11 9 8 9 10 12 14 14 13 12 11 9 7 8 6 4 5 11 12 14 10 6 5 5 5 4 4 9 13 15 22 28 27 23 21 19
3 2 4 4 4 6 5 8 11 9 12 13 5 5 9 8 7 8 4 0 3 6 3 1 5 10 13 14 8 5 8 5 3 4 4 4 3 3 3 2 4 5 3 7 13 9 2 6 7 7 12 13 8 4 5 8 9 9 9 10 10 12 13 13 15 12 7 7 11 14 14 15 12 8 9 8 7 6 7 11 15 16 22 26 25 23 22 21
3 3 4 4 3 2 5 10 11 9 12 13 6 5 11 11 9 7 3 3 4 4 2 5 8 9 12 13 9 7 8 7 8 6 3 4 4 3 4 2 2 3 2 3 4 2 4 6 5 7 12 12 6 4 4 7 7 4 5 8 11 12 14 16 18 14 11 10 13 17 17 14 11 8 7 8 9 9 7 8 12 19 24 25 24 24 24 22
3 3 4 5 4 3 7 12 11 8 9 12 8 7 9 10 9 4 1 4 7 4 4 7 9 8 8 11 11 8 11 15 13 9 7 6 4 3 3 3 3 2 2 3 1 2 3 5 4 5 7 8 3 3 2 4 6 6 4 5 9 10 12 14 15 13 10 10 14 18 16 11 10 9 7 8 9 7 6 9 16 23 27 25 24 25 25 24
4 4 7 7 3 3 7 9 9 7 7 11 10 7 8 10 8 5 1 1 2 4 5 6 8 7 3 7 12 11 15 16 9 11 18 13 9 11 7 4 8 7 3 4 3 1 3 2 3 4 5 5 2 3 3 3 2 3 2 5 10 10 10 12 12 12 11 11 16 15 11 11 10 5 7 11 12 10 12 17 19 22 26 27 26 28 29 29
6 6 8 7 3 1 4 6 8 7 6 9 10 8 8 8 6 5 3 1 3 1 7 9 10 8 3 6 11 8 9 8 1 10 21 14 9 15 11 10 17 15 7 6 4 2 4 4 3 5 7 6 2 3 5 5 2 2 3 9 13 12 12 12 10 12 13 12 13 10 10 13 7 3 6 9 10 11 17 21 21 22 27 31 32 33 33 32
Wind_Direction
205 205 207 212 215 215 212 209 207 208 208 208 205 199 200 206 207 209 211 210 210 209 210 212 212 209 205 206 213 218 221 220 219 221 220 217 215 211 209 230 239 233 242 251 257 243 227 230 217 203 192 190 201 193 187 181 178 182 197 195 170 175 174 174 179 176 120 143 160 172 180 179 167 176 184 185 184 184 194 199 206 203 208 197 178 177 179 178
204 205 205 209 213 214 211 207 206 206 208 208 205 201 201 205 205 207 208 206 206 203 203 202 200 198 196 203 212 215 216 219 231 234 217 208 211 210 215 234 233 230 236 242 245 237 229 231 222 207 190 189 200 185 183 176 172 171 204 199 192 175 137 168 171 163 157 145 154 171 182 184 174 168 176 187 182 179 192 201 210 208 203 194 183 178 181 182
204 205 206 209 212 213 210 207 205 205 207 208 206 203 203 204 204 206 205 203 201 197 195 192 190 189 190 196 200 203 209 223 242 232 211 203 208 207 212 232 232 231 237 243 243 229 222 225 223 212 194 190 187 178 181 180 179 184 216 208 174 147 124 179 175 162 139 140 148 164 178 183 171 167 178 191 175 185 207 201 202 212 205 194 187 184 183 186
203 204 204 207 211 213 210 208 207 206 207 207 206 205 205 203 203 205 202 200 197 192 189 186 186 186 189 191 193 203 206 226 243 222 206 199 203 209 218 230 227 228 235 240 237 225 217 214 212 209 199 190 172 177 186 187 185 177 212 247 112 145 143 168 183 166 132 146 153 151 165 179 171 174 180 180 176 201 221 213 204 209 204 199 193 189 189 190
203 203 204 206 210 212 209 208 208 207 207 206 206 205 205 203 202 204 200 196 192 188 186 184 186 189 194 197 201 204 186 190 243 219 215 200 199 211 227 227 220 222 228 230 226 218 214 211 206 204 203 190 162 175 193 190 184 159 207 353 81 157 142 154 182 180 153 146 151 145 160 173 169 179 186 188 200 205 216 219 215 213 207 204 201 198 195 193
203 203 204 206 210 211 208 205 205 204 203 202 203 203 204 203 201 203 199 193 189 185 185 186 189 196 200 201 201 189 169 177 234 208 218 201 196 212 228 217 211 217 222 221 215 212 213 208 201 199 201 187 175 176 173 179 194 202 154 32 114 124 100 152 174 186 173 156 156 157 166 166 166 185 195 201 218 214 208 221 219 218 216 212 208 208 203 196
201 202 203 205 210 210 208 206 203 200 198 196 198 201 203 202 201 203 199 193 190 187 189 192 195 202 202 198 192 181 190 208 141 152 200 196 196 212 220 205 204 214 215 211 208 210 207 199 201 198 189 169 185 180 154 167 197 245 143 137 141 87 106 163 175 180 174 176 172 167 165 167 177 188 195 211 223 220 223 224 214 217 216 215 212 211 212 205
199 200 202 205 209 207 206 206 201 195 194 193 193 196 201 201 200 202 199 195 193 193 196 198 202 205 200 195 186 183 204 209 169 127 163 186 199 213 211 199 200 209 211 208 207 210 202 198 203 197 191 211 186 169 157 162 204 248 144 146 143 86 118 159 170 169 171 184 175 166 161 173 189 189 203 220 224 222 226 221 203 207 207 211 212 211 214 213
198 200 201 205 205 203 204 202 197 193 190 190 191 193 198 199 199 201 199 198 196 197 200 202 205 201 197 195 186 188 208 205 196 185 149 173 197 212 206 199 200 204 206 203 203 207 200 201 206 199 211 216 178 162 166 174 209 184 123 133 137 99 110 124 143 157 166 169 164 161 146 169 189 199 234 232 230 226 227 225 218 206 203 208 210 212 214 215
197 200 201 203 201 201 202 196 194 192 186 186 188 190 195 197 198 200 199 198 198 201 203 202 201 197 194 189 182 192 209 205 206 211 180 154 189 210 205 201 203 202 204 200 201 205 200 205 210 205 223 202 171 156 169 182 183 139 120 105 110 103 106 113 133 146 152 157 166 164 128 138 174 195 239 230 231 229 225 227 225 221 214 211 212 215 216 217
195 197 198 199 199 201 199 194 194 189 184 185 186 187 191 193 196 198 198 198 199 201 201 200 198 196 194 187 184 194 205 208 216 218 215 177 183 204 202 204 205 201 203 201 202 208 202 207 211 204 226 198 169 140 158 169 124 134 127 101 89 97 102 97 127 139 140 156 173 153 108 99 141 200 232 207 214 221 220 224 226 226 224 219 217 217 218 218
193 194 197 199 200 199 196 195 193 185 184 187 186 187 188 189 192 196 197 196 197 198 197 196 196 193 191 192 197 202 203 207 210 212 212 199 191 193 195 201 201 198 202 205 208 208 201 201 206 206 213 180 164 144 155 143 130 136 135 116 111 122 111 84 113 150 160 167 164 147 126 187 196 216 219 200 197 202 212 219 223 226 226 223 222 220 220 220
190 191 197 197 198 198 194 193 187 183 186 186 185 186 184 184 188 192 193 194 193 192 192 193 192 188 186 195 207 207 207 204 192 192 199 195 192 187 189 194 193 195 198 202 206 201 198 197 203 206 196 166 149 136 140 130 134 142 142 144 145 171 161 96 79 167 184 162 160 166 212 213 208 217 207 201 203 197 205 215 219 223 224 223 224 223 223 224
188 191 195 195 197 196 195 190 182 183 186 183 182 182 180 180 182 185 187 189 187 185 187 188 185 183 186 199 212 210 208 205 190 186 193 190 186 184 186 190 191 198 199 194 193 191 195 198 199 196 184 163 136 122 122 110 131 139 144 196 171 196 172 102 64 179 180 163 168 193 248 221 188 203 207 206 204 205 210 214 219 222 223 223 224 225 226 226
187 190 192 195 194 194 195 188 183 185 183 180 179 175 174 175 174 177 180 181 181 180 180 179 176 177 189 208 214 210 209 208 194 178 185 185 186 189 185 188 192 197 196 190 187 186 189 193 189 171 141 145 142 130 114 73 74 116 171 179 187 220 172 109 95 5 187 161 180 210 244 240 169 158 199 212 214 219 224 224 226 225 226 226 225 227 228 228
187 187 190 192 191 193 192 185 186 186 178 175 173 166 165 166 165 168 170 172 173 173 172 171 174 173 186 214 209 208 207 208 198 176 179 181 186 193 185 185 189 189 186 186 185 181 180 174 162 144 126 140 155 153 136 140 161 198 225 175 168 204 181 150 138 34 346 150 195 227 274 257 141 129 185 197 210 221 230 232 231 229 230 231 230 229 230 230
185 184 187 189 190 192 188 187 186 178 175 173 163 157 156 156 158 161 161 164 166 165 167 170 172 175 200 215 205 206 204 205 201 185 176 177 181 188 186 181 180 183 178 175 174 171 170 159 150 145 130 142 177 167 165 185 183 162 256 112 147 210 189 180 151 107 288 209 213 217 254 253 157 110 179 177 186 216 233 236 233 232 233 235 235 233 232 231
182 182 185 187 189 188 186 187 179 172 174 164 153 151 150 150 153 155 155 155 153 153 163 172 170 176 220 206 198 202 201 203 201 194 185 177 176 179 184 180 176 175 163 156 160 159 158 151 152 157 152 171 180 185 192 188 164 165 180 174 171 225 227 213 162 125 173 220 222 200 236 250 239 207 202 204 233 256 253 253 246 237 236 237 237 235 234 233
180 181 183 185 187 183 184 181 174 173 166 152 146 145 141 141 143 148 152 150 148 149 167 179 175 172 212 184 188 197 196 195 196 197 194 182 173 171 175 178 174 166 153 151 161 157 154 144 165 192 185 181 184 200 207 138 159 176 181 188 180 184 218 227 71 20 281 207 218 216 230 252 249 234 225 229 250 260 259 264 260 246 237 236 236 235 233 235
179 181 182 185 184 180 181 177 175 171 158 149 148 141 136 139 132 142 157 156 161 172 217 177 176 156 59 168 178 184 180 179 187 191 191 187 174 166 164 163 162 160 154 154 157 156 168 183 199 204 188 177 182 195 90 83 166 176 165 194 187 177 181 145 84 21 333 227 220 227 245 262 260 251 244 242 254 260 255 258 259 254 246 238 236 237 236 237
178 179 181 183 180 179 178 175 174 167 157 154 152 147 152 157 151 165 162 159 173 177 177 171 173 161 119 168 174 174 166 163 180 183 184 185 174 165 158 154 153 158 149 108 113 125 181 209 210 195 148 143 150 122 93 98 130 171 186 181 186 216 171 90 79 57 25 246 223 256 268 260 259 262 261 249 247 253 250 250 254 255 253 247 240 239 239 239
176 178 180 179 178 178 176 172 170 165 158 157 157 155 165 163 163 167 157 137 144 142 156 168 170 147 150 167 169 168 160 148 169 177 176 176 175 172 158 157 164 159 114 110 122 126 199 220 202 109 101 98 89 96 114 103 119 159 188 180 190 196 132 106 122 77 58 243 241 33 270 261 262 265 263 251 243 249 250 250 253 254 253 251 246 243 241 239
174 176 177 178 178 175 172 171 169 165 162 162 160 157 165 163 160 160 148 114 127 120 154 170 174 152 149 166 165 161 158 148 162 172 173 172 175 179 166 160 157 138 148 184 170 168 195 228 119 128 141 129 104 128 136 115 139 164 168 185 190 163 176 208 166 124 53 288 320 345 284 275 263 256 258 246 239 247 252 251 252 251 250 250 248 245 242 239
173 175 176 178 176 170 169 169 168 169 167 164 159 154 161 160 154 154 138 95 125 102 157 175 182 168 152 165 171 167 160 158 165 171 174 172 169 172 167 155 135 144 178 192 182 180 177 5 120 147 162 159 147 159 174 182 193 215 207 199 181 170 198 337 123 135 118 201 249 303 283 276 248 239 249 234 227 246 250 251 251 249 247 247 247 245 243 240
173 174 175 176 173 168 166 167 169 172 169 164 158 156 159 156 153 152 132 91 141 127 149 180 189 184 165 166 175 172 157 157 168 172 174 175 168 160 155 155 158 178 174 155 161 192 172 70 144 149 171 171 161 174 193 200 198 215 221 212 198 175 165 101 128 146 186 209 176 337 262 259 187 231 243 230 255 249 243 247 249 247 245 244 245 244 243 244
174 174 173 174 172 166 163 168 173 172 169 167 158 155 160 157 154 153 134 96 181 156 146 175 186 193 184 175 170 165 159 160 171 174 173 176 174 161 147 149 156 177 151 130 143 201 102 107 145 153 158 161 177 198 191 193 200 210 216 192 150 149 141 136 158 173 212 209 86 332 246 253 261 226 224 2 292 262 243 243 248 246 243 242 242 244 245 246
174 173 172 174 172 167 168 173 173 170 171 169 157 156 161 156 155 156 138 84 196 162 153 166 174 189 186 176 167 166 164 156 160 172 172 172 176 169 160 158 134 142 143 132 170 188 109 127 125 138 147 157 191 208 180 185 200 193 155 161 145 147 153 159 170 189 242 94 112 236 259 266 266 239 119 31 284 267 246 239 245 244 243 244 244 246 247 248
173 172 172 173 173 174 176 173 170 171 171 163 155 158 159 154 156 160 148 159 171 144 153 170 167 178 177 172 174 175 140 150 151 173 174 172 171 168 172 178 160 139 149 172 189 234 98 161 173 149 156 184 193 204 159 180 201 230 91 142 137 137 144 159 169 162 59 244 203 178 159 249 255 234 118 19 269 258 245 234 235 234 237 242 241 242 243 245
171 171 171 172 173 177 181 175 171 170 164 156 156 158 156 153 153 152 171 195 150 119 150 163 162 170 169 168 177 177 146 156 148 165 171 170 168 168 164 168 143 114 92 321 171 67 32 189 187 160 175 186 143 30 92 199 197 141 138 103 92 88 85 121 169 141 131 239 220 160 120 253 252 213 167 179 247 246 241 227 219 218 221 225 229 234 239 242
171 170 171 173 173 177 180 178 174 166 157 157 160 157 154 154 152 156 199 200 148 126 140 156 164 168 163 159 170 172 157 156 119 145 157 159 159 147 117 134 130 113 74 30 77 59 17 140 133 140 168 130 103 64 21 347 131 139 143 113 100 93 82 98 91 120 189 231 223 92 20 278 265 233 194 203 233 245 246 236 191 181 193 198 212 230 238 242
173 172 173 176 176 177 176 175 174 165 159 160 157 155 155 147 152 180 176 148 133 133 144 161 165 163 166 168 166 163 147 103 141 148 148 146 143 126 118 130 124 111 125 107 95 35 51 103 112 95 117 118 109 77 44 42 139 145 157 139 118 110 136 146 135 191 220 223 124 51 339 250 240 240 186 232 302 283 255 261 154 146 161 167 190 222 229 229
176 176 177 179 178 179 178 173 170 164 160 161 155 155 155 131 189 196 160 143 155 171 177 173 177 173 172 169 143 134 128 121 171 166 150 148 151 147 154 173 161 150 181 172 141 101 107 93 52 72 146 176 167 103 72 48 223 220 168 160 156 149 165 189 183 199 229 224 67 34 300 237 244 256 261 271 275 249 237 243 228 197 202 193 182 200 202 198
176 177 177 178 178 179 179 174 167 162 161 160 156 154 156 168 191 192 166 168 174 152 145 141 150 160 162 160 145 145 132 138 187 187 137 147 164 160 115 158 164 165 166 155 139 148 158 305 134 121 179 223 214 153 143 183 204 199 173 175 179 157 169 195 176 228 254 227 54 323 269 250 258 263 252 254 266 268 240 242 245 252 248 227 208 206 195 181
175 175 174 175 178 177 176 173 167 163 162 160 157 150 164 186 196 183 175 193 338 96 124 123 127 144 158 161 159 160 135 110 179 167 131 152 167 173 188 189 181 91 109 146 165 174 189 207 178 153 150 197 213 218 182 151 166 196 176 183 188 171 188 199 179 213 220 105 85 163 229 230 222 48 253 255 286 290 257 246 249 249 243 235 234 225 195 178
172 174 172 170 173 173 173 173 168 166 164 161 157 163 181 193 198 182 174 165 139 122 120 128 133 146 164 126 137 182 181 149 174 156 150 167 175 180 181 184 194 157 141 166 179 171 198 220 43 9 5 168 196 273 334 111 138 190 15 296 212 180 144 140 101 155 118 66 152 181 245 247 264 309 287 260 273 272 258 252 250 247 244 240 241 229 190 177
171 171 171 169 170 171 170 171 170 169 167 162 161 191 193 204 184 173 162 130 138 135 121 128 136 152 166 138 179 203 243 131 169 174 173 179 190 185 182 184 185 187 175 167 153 149 186 213 9 1 16 36 288 292 327 171 157 157 165 186 208 66 102 119 115 69 38 255 194 166 250 261 292 286 278 237 248 257 245 247 245 242 243 240 234 216 186 177
169 170 169 168 169 169 169 171 171 171 170 168 192 199 199 217 145 137 134 119 132 140 134 144 163 168 169 163 182 186 170 134 170 193 178 172 201 185 187 200 179 189 202 174 172 212 172 126 13 351 114 57 327 102 58 15 31 147 177 168 143 39 60 139 188 127 172 242 208 160 242 258 244 256 290 352 247 236 199 216 243 240 240 234 222 204 186 180
166 168 168 168 170 168 168 171 173 173 171 178 212 208 209 190 162 129 133 128 138 153 152 157 164 185 177 169 169 173 170 165 171 189 174 176 218 179 175 198 184 191 200 175 148 212 156 130 59 357 169 47 346 173 132 31 13 10 196 142 127 200 203 185 190 171 185 227 241 197 241 262 218 217 314 289 239 239 210 194 227 233 229 220 211 199 189 182
161 160 165 169 168 166 167 171 173 172 170 199 210 210 185 130 158 150 145 137 137 160 162 164 154 197 184 167 150 159 177 177 162 172 180 185 219 179 176 189 185 190 191 173 162 167 129 173 159 96 269 3 345 226 184 163 83 41 127 125 347 267 219 188 160 171 203 211 238 231 226 241 214 200 229 235 233 237 221 200 214 225 221 216 209 198 188 181
158 151 165 170 166 165 167 166 167 169 182 209 199 198 109 110 96 166 155 146 141 173 164 173 163 154 158 149 135 152 176 174 160 177 200 180 191 221 195 191 160 167 176 153 142 159 113 195 160 110 300 203 183 218 211 182 161 155 170 173 183 157 26 230 149 61 226 202 215 244 247 243 213 172 207 227 235 197 208 248 242 230 224 217 208 195 186 179
156 142 165 170 169 166 161 157 162 177 204 208 186 59 136 139 128 172 169 154 143 110 126 142 155 149 142 148 152 152 154 157 170 187 196 183 196 228 205 191 161 141 150 126 151 172 125 172 152 132 173 198 193 335 321 272 178 159 189 185 181 155 128 193 197 112 348 244 195 233 270 263 175 159 215 231 270 70 235 267 263 242 231 217 201 190 184 172
154 135 166 171 172 165 158 155 176 194 209 199 154 85 137 139 141 171 183 163 139 93 111 124 136 143 146 152 149 150 154 157 176 190 201 207 210 213 196 184 164 153 158 155 163 156 98 109 118 115 178 224 307 1 57 302 317 313 270 206 171 165 163 196 210 184 138 134 93 97 282 273 139 149 239 253 279 276 265 258 264 263 235 213 194 182 175 166
141 121 161 169 170 164 159 156 176 192 239 169 119 91 126 135 152 166 181 179 163 136 132 129 142 157 157 149 140 154 163 160 180 197 198 204 211 209 181 174 162 156 160 147 137 141 110 112 117 100 77 2 319 207 121 62 277 255 254 206 184 193 183 192 216 170 148 163 162 168 250 259 124 118 253 266 270 271 263 247 251 265 232 202 184 171 164 161
117 119 155 168 168 166 165 172 180 188 196 152 131 119 143 147 165 165 179 188 176 156 143 135 165 159 135 147 149 162 171 171 203 214 201 174 194 181 175 174 166 162 171 177 174 175 175 156 134 125 110 153 196 179 168 186 212 225 223 184 187 154 96 90 101 142 195 201 189 204 245 256 4 68 255 257 265 266 254 244 249 255 220 187 170 161 157 156
118 122 155 166 172 179 187 188 183 180 156 155 172 180 152 80 198 185 177 164 150 155 144 140 154 130 118 138 115 147 181 181 189 194 186 187 185 159 177 179 177 179 183 177 168 169 178 177 159 164 169 180 188 194 197 189 180 215 211 154 188 178 159 164 153 170 212 205 176 206 242 252 70 60 251 227 212 255 239 232 239 231 197 178 168 162 159 156
121 124 151 164 180 198 223 146 164 167 159 164 175 182 172 156 176 190 172 160 172 150 110 108 146 122 116 153 134 154 191 191 47 173 185 184 172 85 185 186 189 199 190 167 156 153 166 214 183 199 202 196 206 208 195 171 156 188 200 192 195 194 183 168 126 192 204 167 171 217 237 247 234 158 223 242 210 225 230 223 231 219 190 180 175 171 166 162
93 133 141 145 180 198 220 184 169 169 165 167 167 175 179 160 143 174 193 193 187 163 97 43 164 160 160 164 152 164 184 173 80 176 180 170 147 53 145 182 195 209 198 167 157 143 95 229 196 212 221 217 219 208 178 171 186 201 204 197 191 187 179 178 200 211 176 133 224 231 229 246 243 176 180 233 216 215 237 223 221 211 191 183 181 180 177 171
73 115 145 139 158 190 211 196 186 173 162 166 167 171 178 172 162 178 189 187 190 185 154 52 192 183 171 163 153 150 165 172 199 194 161 146 139 109 109 131 199 198 191 178 166 139 134 215 203 203 221 229 223 181 161 180 197 208 202 188 180 177 177 191 212 212 171 172 233 235 220 233 241 199 188 212 211 212 225 221 215 204 192 188 187 187 186 182
112 110 136 136 121 181 173 160 165 166 164 171 179 180 185 186 177 175 148 124 179 216 197 182 192 185 170 165 160 153 159 177 200 204 160 131 142 139 126 120 190 198 161 166 200 186 170 198 199 192 220 233 211 147 173 184 182 194 192 178 173 176 185 200 212 214 202 208 235 241 235 236 242 226 203 207 218 223 227 224 213 201 196 196 196 196 194 191
141 140 137 120 83 105 138 138 148 159 166 178 186 185 191 192 178 167 95 161 177 191 198 187 177 167 167 172 171 173 185 191 197 195 165 139 150 169 160 161 157 145 144 153 213 287 213 188 155 157 220 238 185 128 188 185 179 185 177 163 167 177 194 209 219 220 216 229 243 247 253 260 253 237 211 201 212 214 212 221 216 208 206 208 208 207 202 197
135 136 138 132 89 107 138 142 154 160 168 186 191 179 186 194 178 148 107 256 185 173 181 165 143 138 142 184 189 196 195 194 193 175 168 165 175 179 176 171 154 140 159 176 156 210 221 186 104 123 213 236 192 168 163 90 107 166 140 162 174 180 195 206 216 214 204 219 238 244 254 260 253 225 189 195 197 197 211 221 222 217 215 216 215 210 205 202
127 129 136 130 90 104 146 143 156 167 178 190 190 176 179 190 179 154 149 70 22 106 169 156 143 140 145 194 202 204 189 185 135 163 173 173 175 178 175 164 162 158 160 171 169 171 172 165 139 159 203 223 209 162 148 114 124 207 197 188 184 190 205 206 214 220 208 210 224 230 236 241 234 148 177 197 187 197 218 223 226 225 220 219 221 216 211 209